Starlink 4372

operational
NORAD ID: 53233 Int'l Des: 2022-084 Owner: SPXS Country: US Constellation: starlink
LEOCIRCULARRETROGRADESSO

关于 Starlink 4372

正在加载描述...

实时位置

正在加载3D地球...

即将过境

高度历史

Altitude vs Time

uPlot chart will show altitude changes over time

两行轨道根数

1 53233U 22084AW 25259.88526248 -.00000360 00000-0 -23471-4 0 9990
2 53233 97.6022 320.0592 0000917 198.8313 161.2877 15.01257585173243
Epoch: Sep 16, 2025 • Age: 30 hours

当前状态

高度 590.8 km
速度 7.56 km/s
星下点 -78.61°S, 43.98°W
发射日期 Jul 22, 2022
运行时间 3.1 years
类型 internet

技术详情

分类 Payload
质量 297.00 kg
干质量 275.00 kg
总质量 297.00 kg
长度 0.20 m
直径 2.80 m
跨度 9.00 m
形状 Box + pan
制造商 SPXS
平台类型 Starlink
阶段状态 In Orbit
所有者/国家 SPXS/US

大型星座

Loading constellations...